Weather History for Tacoma Narrows, WA

Change the Weather History Date:

Tuesday, January 17, 2012

  Actual Average Record
Temperature  
Mean Temperature 34 °F -  
Max Temperature 37 °F 44 °F 53 °F (2005)
Min Temperature 32 °F 37 °F 30 °F (2013)
Degree Days  
Heating Degree Days 30    
Moisture  
Dew Point 32 °F    
Average Humidity 91    
Maximum Humidity 100    
Minimum Humidity 75    
Precipitation  
Precipitation 0.22 in - - ()
Sea Level Pressure  
Sea Level Pressure 29.89 in    
Wind  
Wind Speed 14 mph (SSW)    
Max Wind Speed 21 mph    
Max Gust Speed 30 mph    
Visibility 7 miles    
Events Rain , Snow    
Averages and records for this station are not official NWS values.
T = Trace of Precipitation, MM = Missing Value Source: NWS Daily Summary

Daily Weather History Graph

Daily Weather History Graph

Search for Another Location

Airport:

Trip Planner

Search our weather history database for the weather conditions in past years. The results will help you decide how hot, cold, wet, or windy it might be!

Date:

Astronomy

Jan. 17, 2012 Rise Set
Actual Time 7:51 AM PST 4:49 PM PST
Civil Twilight 7:17 AM PST 5:23 PM PST
Nautical Twilight 6:39 AM PST 6:01 PM PST
Astronomical Twilight 6:02 AM PST 6:38 PM PST
Moon 2:15 AM PST (1/17) 11:47 AM PST (1/17)
Length of Visible Light 10h 06m
Length of Day
8h 58m
Waning Crescent, 34% of the Moon is Illuminated
Jan 17
Waning Crescent
Jan 22
New
Jan 30
First Quarter
Feb 7
Full
Feb 14
Last Quarter

Hourly Weather History & Observations

Time (PST) Temp. Windchill Dew Point Humidity Pressure Visibility Wind Dir Wind Speed Gust Speed Precip Events Conditions
12:02 AM 33.8 °F 24.3 °F 33.8 °F 100% 29.95 in 9.0 mi South 13.8 mph 27.6 mph 0.00 in Snow Light Snow
12:18 AM 33.8 °F 23.2 °F 33.8 °F 100% 29.95 in 10.0 mi South 17.3 mph 24.2 mph 0.00 in Rain Light Freezing Rain
12:53 AM 34.0 °F 22.4 °F 32.0 °F 92% 29.96 in 8.0 mi South 20.7 mph 29.9 mph 0.01 in Snow Light Snow
1:32 AM 33.8 °F 23.5 °F 32.0 °F 93% 29.93 in 2.0 mi South 16.1 mph 23.0 mph 0.01 in Snow Light Snow
1:36 AM 33.8 °F 24.3 °F 32.0 °F 93% 29.93 in 1.5 mi South 13.8 mph - 0.01 in Snow Light Snow
1:53 AM 33.1 °F 23.9 °F 32.0 °F 96% 29.94 in 1.2 mi South 12.7 mph 19.6 mph 0.02 in Snow Light Snow
2:15 AM 33.8 °F 24.3 °F 32.0 °F 93% 29.92 in 3.0 mi SSW 13.8 mph 20.7 mph 0.00 in Snow Light Snow
2:26 AM 33.8 °F 24.8 °F 32.0 °F 93% 29.92 in 4.0 mi SSW 12.7 mph - 0.01 in Snow Light Snow
2:34 AM 33.8 °F 25.3 °F 32.0 °F 93% 29.91 in 7.0 mi SSW 11.5 mph 21.9 mph 0.01 in Snow Light Snow
2:50 AM 33.8 °F 23.2 °F 32.0 °F 93% 29.91 in 2.0 mi South 17.3 mph 21.9 mph 0.03 in Snow Light Snow
2:53 AM 33.1 °F 23.0 °F 32.0 °F 96% 29.92 in 2.0 mi South 15.0 mph - 0.03 in Snow Light Snow
3:03 AM 33.8 °F 23.5 °F 32.0 °F 93% 29.90 in 7.0 mi South 16.1 mph 21.9 mph 0.01 in Snow Light Snow
3:18 AM 33.8 °F 23.9 °F 33.8 °F 100% 29.89 in 9.0 mi South 15.0 mph 23.0 mph N/A Snow Light Snow
3:36 AM 33.8 °F 22.5 °F 32.0 °F 93% 29.89 in 1.8 mi South 19.6 mph 25.3 mph 0.03 in Snow Light Snow
3:53 AM 33.8 °F 24.3 °F 32.0 °F 93% 29.88 in 2.0 mi SSW 13.8 mph 24.2 mph N/A Snow Light Snow
4:01 AM 33.8 °F 24.3 °F 32.0 °F 93% 29.88 in 1.5 mi South 13.8 mph 23.0 mph 0.01 in Snow Light Snow
4:11 AM 33.8 °F 23.9 °F 32.0 °F 93% 29.87 in 3.0 mi South 15.0 mph - N/A Snow Light Snow
4:31 AM 33.8 °F 23.2 °F 32.0 °F 93% 29.87 in 8.0 mi South 17.3 mph 24.2 mph 0.03 in Snow Light Snow
4:53 AM 33.1 °F 22.2 °F 32.0 °F 96% 29.87 in 10.0 mi South 17.3 mph 25.3 mph 0.04 in   Overcast
5:53 AM 33.1 °F 22.2 °F 32.0 °F 96% 29.86 in 3.0 mi South 17.3 mph 25.3 mph 0.05 in Snow Light Snow
6:25 AM 33.8 °F 23.5 °F 33.8 °F 100% 29.83 in 10.0 mi South 16.1 mph - 0.02 in Rain Light Freezing Rain
6:53 AM 34.0 °F 22.7 °F 33.1 °F 96% 29.84 in 10.0 mi SSW 19.6 mph 27.6 mph 0.03 in   Overcast
7:18 AM 33.8 °F 24.8 °F 33.8 °F 100% 29.82 in 10.0 mi South 12.7 mph - 0.00 in Rain Light Freezing Rain
7:25 AM 33.8 °F 24.8 °F 33.8 °F 100% 29.82 in 8.0 mi SSW 12.7 mph - 0.00 in Snow Light Snow
7:53 AM 34.0 °F 26.0 °F 33.1 °F 96% 29.84 in 10.0 mi SSW 10.4 mph - 0.01 in Rain Light Freezing Rain
8:25 AM 33.8 °F 23.5 °F 33.8 °F 100% 29.82 in 10.0 mi South 16.1 mph 26.5 mph 0.00 in   Overcast
8:53 AM 34.0 °F 25.0 °F 33.1 °F 96% 29.83 in 10.0 mi SSW 12.7 mph - 0.00 in   Overcast
9:53 AM 35.1 °F 25.9 °F 34.0 °F 96% 29.83 in 10.0 mi South 13.8 mph 23.0 mph 0.01 in Rain Light Freezing Rain
10:15 AM 35.6 °F 26.6 °F 33.8 °F 93% 29.82 in 10.0 mi South 13.8 mph 19.6 mph 0.00 in   Overcast
10:53 AM 35.1 °F 27.4 °F 33.1 °F 92% 29.85 in 5.0 mi SW 10.4 mph 21.9 mph 0.02 in Snow Light Snow
11:12 AM 35.6 °F 27.1 °F 33.8 °F 93% 29.83 in 4.0 mi SW 12.7 mph 17.3 mph 0.00 in Rain Light Freezing Rain
11:40 AM 37.4 °F 29.3 °F 35.6 °F 93% 29.83 in 4.0 mi SSW 12.7 mph - 0.00 in   Overcast
11:53 AM 37.0 °F 28.9 °F 34.0 °F 89% 29.85 in 7.0 mi SSW 12.7 mph 21.9 mph 0.00 in   Mostly Cloudy
12:53 PM 36.0 °F 28.0 °F 32.0 °F 86% 29.87 in 10.0 mi SSW 11.5 mph 20.7 mph N/A   Mostly Cloudy
1:53 PM 36.0 °F 26.3 °F 28.9 °F 76% 29.88 in 10.0 mi SSW 16.1 mph 23.0 mph N/A   Mostly Cloudy
2:00 PM 35.6 °F 27.1 °F 28.4 °F 75% 29.87 in 10.0 mi SW 12.7 mph 25.3 mph N/A   Mostly Cloudy
2:53 PM 35.1 °F 27.9 °F 30.0 °F 82% 29.90 in 10.0 mi SW 9.2 mph - N/A   Mostly Cloudy
3:53 PM 35.6 °F 28.0 °F 30.2 °F 81% 29.90 in 10.0 mi SSW 10.4 mph 16.1 mph N/A   Mostly Cloudy
4:53 PM 34.0 °F 26.0 °F 28.9 °F 82% 29.93 in 10.0 mi SSW 10.4 mph 20.7 mph N/A   Mostly Cloudy
5:53 PM 33.1 °F 26.1 °F 28.9 °F 85% 29.94 in 10.0 mi SSW 8.1 mph - N/A   Scattered Clouds
6:53 PM 33.1 °F 26.9 °F 28.0 °F 82% 29.95 in 10.0 mi SSW 6.9 mph - N/A   Clear
7:53 PM 32.0 °F 24.8 °F 28.0 °F 85% 29.96 in 10.0 mi SSW 8.1 mph - N/A   Clear
8:53 PM 33.1 °F 24.9 °F 28.0 °F 82% 29.96 in 10.0 mi SSW 10.4 mph - N/A   Clear
9:53 PM 33.1 °F 27.7 °F 27.0 °F 78% 29.97 in 10.0 mi SSW 5.8 mph - N/A   Clear
10:53 PM 33.1 °F - 27.0 °F 78% 29.98 in 10.0 mi Calm Calm - N/A   Mostly Cloudy
11:53 PM 33.1 °F - 27.0 °F 78% 29.98 in 10.0 mi Calm Calm - N/A   Overcast